Regional Weather Roundup
Issued by NWS

Home | Current Version | Previous Version | Text Only | Print | Product List | Glossary Off
Versions: 1 2 3 4 5 6 7 8 9 10 11 12 13 14 15 16 17 18 19 20 21 22 23 24 25 26 27 28 29 30 31 32 33 34 35 36 37 38 39 40 41 42 43 44 45 46 47 48 49 50

000
ASUS43 KOAX 281410
RWRNE

WEATHER ROUNDUP FOR NEBRASKA
NATIONAL WEATHER SERVICE OMAHA NE
900 AM CDT SUN MAY 28 2017

NOTES: SATELLITE DATA IS BEING USED TO AUGMENT CLOUD COVER ABOVE
       12000 FEET.
       "FAIR" INDICATES FEW OR NO CLOUDS BELOW 12,000 FEET WITH NO
       SIGNIFICANT WEATHER AND/OR OBSTRUCTIONS TO VISIBILITY.

  * THESE STATIONS DO NOT REPORT WEATHER SUCH AS RAIN...SNOW OR FOG.

NEZ001>004-019>022-054>056-281500-
NEBRASKA PANHANDLE

CITY           SKY/WX    TMP DP  RH WIND       PRES   REMARKS
SCOTTSBLUFF    SUNNY     54  41  61 NW9       30.18S
ALLIANCE       MOSUNNY   57  46  66 W9        30.13R
CHADRON        SUNNY     58  44  60 NW15G21   30.12R
GORDON         FAIR      59  46  61 NW10      30.09R
KIMBALL        SUNNY     56  40  53 W10       30.22S
SIDNEY         SUNNY     56  41  57 NW13      30.19R
$$

NEZ057>060-069>072-079>082-281500-
SOUTHWEST NEBRASKA

CITY           SKY/WX    TMP DP  RH WIND       PRES   REMARKS
NORTH PLATTE   SUNNY     56  47  71 W13       30.09R
IMPERIAL       SUNNY     59  42  53 NW15      30.14R
LEXINGTON      SUNNY     58  50  73 NW12      30.06R
MCCOOK         SUNNY     58  47  66 NW14      30.09R
OGALLALA       SUNNY     59  47  63 W9        30.13R
$$

NEZ005>010-023>029-035>040-094-281500-
NORTH CENTRAL NEBRASKA

CITY           SKY/WX    TMP DP  RH WIND       PRES   REMARKS
VALENTINE      SUNNY     63  44  50 NW17G24   30.02R
AINSWORTH      SUNNY     62  47  57 W16       30.01S
BROKEN BOW     SUNNY     63  47  55 NW15      30.02R
O`NEILL        PTSUNNY   62  47  57 W12       29.96S
ORD            SUNNY     61  48  62 NW10      29.98R
THEDFORD       SUNNY     61  47  59 NW10      30.05S
$$

NEZ041-046>049-061>064-073>077-083>087-281500-
SOUTH CENTRAL NEBRASKA

CITY           SKY/WX    TMP DP  RH WIND       PRES   REMARKS
GRAND ISLAND   SUNNY     63  50  62 NW13      30.00R
AURORA         SUNNY     64  47  54 NW13      29.99R
HASTINGS       SUNNY     63  47  55 NW14      30.01R
HEBRON         SUNNY     65  52  63 NW10      29.99R
HOLDREGE       SUNNY     61  47  59 NW13      30.04S
KEARNEY *      SUNNY     63  45  51 NW12      30.03R
YORK           SUNNY     64  48  55 NW14      29.98R
$$

NEZ011>018-030>034-042>045-281500-
NORTHEAST NEBRASKA

CITY           SKY/WX    TMP DP  RH WIND       PRES   REMARKS
NORFOLK        SUNNY     63  49  60 W9        29.92R
ALBION         SUNNY     65  49  57 NW6       29.96S
BLAIR          SUNNY     64  51  63 NW6       29.92R
FREMONT        SUNNY     64  51  62 W8        29.93R
TEKAMAH        SUNNY     67  49  52 NW10      29.90R
WAYNE          SUNNY     66  49  53 NW14      29.91S
$$

NEZ050>053-065>068-078-088>093-281500-
SOUTHEAST NEBRASKA

CITY           SKY/WX    TMP DP  RH WIND       PRES   REMARKS
LINCOLN        SUNNY     66  50  56 NW9       29.95R
OMAHA EPPLEY   SUNNY     65  52  62 NW6       29.91S
BEATRICE       SUNNY     64  53  68 NW8       29.97R
FALLS CITY     SUNNY     64  55  72 W9        29.93R
NEBRASKA CITY  SUNNY     65  52  64 NW9       29.93S
PLATTSMOUTH    SUNNY     64  53  67 NW12      29.92S
$$

NEZ044-045-051>053-067-281500-
OMAHA AREA

CITY           SKY/WX    TMP DP  RH WIND       PRES   REMARKS
OMAHA EPPLEY   SUNNY     65  52  62 NW6       29.91S
BLAIR          SUNNY     64  51  63 NW6       29.92R
FREMONT        SUNNY     64  51  62 W8        29.93R
MILLARD        SUNNY     66  52  62 NW9       29.93R
OFFUTT AFB     SUNNY     64  52  66 W9        29.91R
PLATTSMOUTH    SUNNY     64  53  67 NW12      29.92S
WAHOO          FAIR      66  48  50 NW12      29.93R
$$




USA.gov is the U.S. government's official web portal to all federal, state and local government web resources and services.